Regional Weather Roundup
Issued by NWS

Home | Current Version | Previous Version | Graphics & Text | Print | Product List | Glossary On
Versions: 1 2 3 4 5 6 7 8 9 10 11 12 13 14 15 16 17 18 19 20 21 22 23 24 25 26 27 28 29 30 31 32 33 34 35 36 37 38 39 40 41 42 43 44 45 46 47 48 49 50
000
ASUS43 KMKX 201510
RWRWI

WISCONSIN REGIONAL WEATHER ROUNDUP
NATIONAL WEATHER SERVICE MILWAUKEE/SULLIVAN WI
900 AM CST TUE FEB 20 2018

NOTE: "FAIR" INDICATES FEW OR NO CLOUDS BELOW 12,000 FEET WITH NO
SIGNIFICANT WEATHER AND/OR OBSTRUCTIONS TO VISIBILITY.

WIZ001-002-006>008-014>016-023>028-201600-
NORTHWEST WISCONSIN

CITY           SKY/WX    TMP DP  RH WIND       PRES   REMARKS
SUPERIOR ARPT  MIX PCPN  14  11  88 N8        29.90F WCI   3
ASHLAND        FRZ RAIN  22  20  92 N8        29.84F FOG     WCI  12
HAYWARD        CLOUDY    20  17  88 N7        29.79F FOG     WCI  11
SIREN          CLOUDY    19  17  89 N7        29.83F FOG     WCI  10
CUMBERLAND     CLOUDY    19  18  93 N5        29.79F WCI  13
RICE LAKE      CLOUDY    20  17  90 N5        29.81F WCI  13
CHETEK         CLOUDY    20  17  91 CALM      29.80F
LADYSMITH      CLOUDY    21  19  91 NW3       29.78F
EAU CLAIRE     CLOUDY    21  18  88 CALM      29.81F
MENOMONIE      CLOUDY    22  19  89 NW5       29.83S FOG     WCI  16
NEW RICHMOND   CLOUDY    20  17  86 NW3       29.84R FOG
OSCEOLA        CLOUDY    20  18  91 W6        29.88S FOG     WCI  12
$$

WIZ003>005-009-010-017-018-201600-
NORTH CENTRAL WISCONSIN

CITY           SKY/WX    TMP DP  RH WIND       PRES   REMARKS
MANITOWISH WTR CLOUDY    19  19 100 CALM      29.75S FOG
ARBOR VITAE    CLOUDY    22  21  94 CALM      29.74F
WOODRUFF       CLOUDY    22  21  94 CALM      29.74F
RHINELANDER    CLOUDY    25  24  96 CALM      29.75R
EAGLE RIVER    CLOUDY    23  23 100 CALM      29.75R
LAND O LAKES   CLOUDY    23  22  96 CALM      29.76S FOG
PHILLIPS       CLOUDY    19  19 100 N3        29.75F
TOMAHAWK       CLOUDY    24  22  94 CALM      29.77S
MEDFORD        CLOUDY    26  26  96 CALM      29.74F FOG
MERRILL        CLOUDY    28  28 100 CALM      29.77F
$$

WIZ029-030-035-036-043>047-201600-
CENTRAL WISCONSIN

CITY           SKY/WX    TMP DP  RH WIND       PRES   REMARKS
WAUSAU         CLOUDY    29  29 100 CALM      29.74F
MOSINEE        CLOUDY    28  28 100 S5        29.77F WCI  23
MARSHFIELD     CLOUDY    29  29 100 SW5       29.75F WCI  24
STEVENS POINT  CLOUDY    29  29 100 CALM      29.77F
WAUPACA        CLOUDY    33  32  95 CALM      29.81F FOG
WAUTOMA        CLOUDY    32  31  96 S3        29.80F
WISC RAPIDS    CLOUDY    31  28  89 SW3       29.79S
CAMP DOUGLAS   CLOUDY    32  32 100 CALM      29.80R
$$

WIZ011>013-019>022-031-037>040-048>050-201600-
NORTHEAST WISCONSIN

CITY           SKY/WX    TMP DP  RH WIND       PRES   REMARKS
ANTIGO         CLOUDY    26  26 100 S5        29.76R WCI  21
SHAWANO        CLOUDY    32  30  93 CALM      29.80S
OCONTO         CLOUDY    30  29  96 CALM      29.81R
STURGEON BAY   CLOUDY    32  31  96 S6        29.80R WCI  26
GREEN BAY      CLOUDY    32  29  88 CALM      29.82R
MANITOWOC      CLOUDY    34  34 100 S7        29.81R WCI  28
APPLETON       CLOUDY    32  32 100 SW3       29.80R
CLINTONVILLE   CLOUDY    32  30  93 SW3       29.81R
OSHKOSH        CLOUDY    32  31  96 VRB3      29.79F
$$

WIZ032>034-041-042-053>061-201600-
SOUTHWEST WISCONSIN

CITY           SKY/WX    TMP DP  RH WIND       PRES   REMARKS
LA CROSSE      CLOUDY    32  31  96 W3        29.82R
SPARTA         CLOUDY    31  31  99 CALM      29.81S
VIROQUA        CLOUDY    32  32 100 SW6       29.80R WCI  26
BOSCOBEL       CLOUDY    35  34  96 W3        29.83S FOG
PRAIRIE DU CHI RAIN      34  33  96 SW7       29.83S WCI  28
PLATTEVILLE    CLOUDY    35  35 100 CALM      29.81F
$$

WIZ056-057-062-063-064-067-068-201600-
SOUTH CENTRAL WISCONSIN

CITY           SKY/WX    TMP DP  RH WIND       PRES   REMARKS
REEDSBURG      MIX PCPN  32  32 100 CALM      29.79F
BARABOO/DELLS  CLOUDY    32  32  99 CALM      29.81R
LONE ROCK      CLOUDY    34  34 100 CALM      29.81F FOG
MINERAL POINT  CLOUDY    36  36 100 S3        29.80S
MADISON        CLOUDY    36  35  96 W3        29.82F
MIDDLETON      CLOUDY    36  36 100 CALM      29.81F
WATERTOWN      PTSUNNY   36  36 100 CALM      29.80F
MONROE         CLOUDY    36  36 100 SW5       29.82R WCI  32
JANESVILLE     LGT RAIN  39  39 100 CALM      29.83F FOG
$$

WIZ051-052-058>065-066-070>072-201600-
SOUTHEAST WISCONSIN

CITY           SKY/WX    TMP DP  RH WIND       PRES   REMARKS
MILWAUKEE      RAIN      44  42  93 SE9       29.84S FOG
WAUKESHA       RAIN      37  37 100 CALM      29.85R
MILWAUKEE/TIMM CLOUDY    39  37  93 S5        29.85R
RACINE         LGT RAIN  41  41 100 CALM      29.87R FOG
BURLINGTON     LGT SNOW  40  39  97 CALM      29.84F
KENOSHA        CLOUDY    52  50  93 NW10G17   29.85S
FOND DU LAC    LGT RAIN  34  30  85 SE6       29.78F WCI  29
SHEBOYGAN      CLOUDY    35  35 100 S6        29.82S WCI  30
WEST BEND      CLOUDY    37  37 100 CALM      29.83R
JUNEAU         RAIN      34  33  99 SE3       29.81F
$$

LSZ147-162-201600-
LAKE SUPERIOR

STATION/POSITION TIME  TEMP    WIND        PRES    WAVE
                       AIR SEA DIR/SP/G            HT/PER
                 (UTC) (F)     (DEG/KT/KT) (MB)    (FT/S)
DEVILS ISLAND    1500   19      30/ 19/ 21 1012.7R
SAXON HARBOR     1440   22      CALM  /  1 1010.2R
$$

LMZ867-665-643>646-201600-
LAKE MICHIGAN

STATION/POSITION TIME  TEMP    WIND        PRES    WAVE
                       AIR SEA DIR/SP/G            HT/PER
                 (UTC) (F)     (DEG/KT/KT) (MB)    (FT/S)
NORTHPORT PIER   1440   31                 1007.8S
KEWAUNEE LAKESHO 1442   32     190/  4/  4 1008.3R
SHEBOYGAN LAKESH 1500   34     180/  7/  7 1010.4R
PORT WASHINGTON  1440   38     200/  3/  4 1011.5R
MILWAUKEE LAKESH 1450   34     200/  6/  6   N/A
KENOSHA   LAKESH 1500   42      CALM  /  1 1010.8
$$

TC  - TEMPERATURE IN CELSIUS
VSB - VISIBILITY IN STATUTE MILES
WCI - WIND CHILL INDEX
HX  - HEAT INDEX





USA.gov is the U.S. government's official web portal to all federal, state and local government web resources and services.